GW6600 Weather Reports


time (UTC)temp
C
wind
direction
speed
KPH
gust
KPH
rain 1hr
cm
rain 24hr
cm
rain mn
cm
humidity
%
barometer
mb
20260508213944 22 149 0.0 3.2 0.00 0.00 0.00 30 1014.9
20260508213441 22 212 3.2 6.4 0.00 0.00 0.00 29 1014.8
20260508212937 22 110 0.0 3.2 0.00 0.00 0.00 29 1015.1
20260508212434 22 129 1.6 4.8 0.00 0.00 0.00 29 1015.0
20260508211929 22 156 1.6 3.2 0.00 0.00 0.00 29 1015.1
20260508211425 22 185 8.0 9.7 0.00 0.00 0.00 26 1015.0
20260508210923 22 138 1.6 4.8 0.00 0.00 0.00 27 1014.9
20260508210419 22 316 1.6 3.2 0.00 0.00 0.00 29 1014.9
20260508205915 22 163 3.2 4.8 0.00 0.00 0.00 34 1014.9
20260508205413 22 128 0.0 1.6 0.00 0.00 0.00 38 1014.8
20260508204909 22 207 3.2 4.8 0.00 0.00 0.00 34 1014.8
20260508204406 22 246 3.2 4.8 0.00 0.00 0.00 33 1014.9
20260508203902 22 163 3.2 12.9 0.00 0.00 0.00 31 1015.1
20260508203358 22 134 1.6 6.4 0.00 0.00 0.00 34 1015.1
20260508202854 22 152 1.6 6.4 0.00 0.00 0.00 35 1015.1
20260508202351 22 194 1.6 4.8 0.00 0.00 0.00 36 1015.0
20260508201849 22 141 0.0 6.4 0.00 0.00 0.00 33 1015.1
20260508201345 21 137 0.0 6.4 0.00 0.00 0.00 34 1014.9
20260508200842 22 231 3.2 6.4 0.00 0.00 0.00 30 1015.2
20260508200338 22 216 3.2 4.8 0.00 0.00 0.00 33 1015.4
20260508195834 22 134 0.0 1.6 0.00 0.00 0.00 36 1015.4
20260508195331 21 125 0.0 1.6 0.00 0.00 0.00 35 1015.5
20260508194827 21 159 3.2 3.2 0.00 0.00 0.00 35 1015.3
20260508194325 22 129 1.6 3.2 0.00 0.00 0.00 32 1015.7
20260508193821 22 211 6.4 6.4 0.00 0.00 0.00 33 1016.0
20260508193318 22 137 0.0 3.2 0.00 0.00 0.00 33 1016.3
20260508192814 21 114 1.6 3.2 0.00 0.00 0.00 32 1016.3
20260508192312 22 344 1.6 4.8 0.00 0.00 0.00 32 1016.5
20260508191809 22 106 0.0 4.8 0.00 0.00 0.00 29 1016.5
20260508191306 21 182 1.6 4.8 0.00 0.00 0.00 32 1016.8
20260508190803 21 123 0.0 9.7 0.00 0.00 0.00 38 1016.8
20260508190259 21 202 3.2 4.8 0.00 0.00 0.00 35 1016.7
20260508185755 22 208 4.8 6.4 0.00 0.00 0.00 30 1016.9
20260508185253 21 319 3.2 3.2 0.00 0.00 0.00 35 1017.1
20260508184750 21 181 1.6 9.7 0.00 0.00 0.00 32 1017.1
20260508184247 21 212 4.8 9.7 0.00 0.00 0.00 33 1016.9
20260508183744 21 127 1.6 6.4 0.00 0.00 0.00 31 1017.0
20260508183240 21 230 0.0 3.2 0.00 0.00 0.00 32 1017.2
20260508182737 21 222 4.8 6.4 0.00 0.00 0.00 30 1017.4
20260508182234 21 133 0.0 1.6 0.00 0.00 0.00 32 1017.3
20260508181729 20 113 1.6 6.4 0.00 0.00 0.00 36 1017.4
20260508181226 20 216 4.8 12.9 0.00 0.00 0.00 31 1017.2
20260508180723 20 158 3.2 6.4 0.00 0.00 0.00 34 1017.4
20260508180220 20 233 1.6 3.2 0.00 0.00 0.00 39 1017.3
20260508175716 20 157 1.6 9.7 0.00 0.00 0.00 38 1017.4
20260508175213 20 109 0.0 11.3 0.00 0.00 0.00 31 1017.5
20260508174712 20 262 4.8 6.4 0.00 0.00 0.00 34 1017.4
20260508174208 20 145 1.6 3.2 0.00 0.00 0.00 39 1017.5
20260508173704 21 157 3.2 9.7 0.00 0.00 0.00 34 1017.6
20260508173200 20 31 3.2 6.4 0.00 0.00 0.00 34 1017.8
20260508172658 21 224 1.6 4.8 0.00 0.00 0.00 33 1017.7
20260508172154 20 117 1.6 6.4 0.00 0.00 0.00 37 1018.0
20260508171651 20 219 3.2 4.8 0.00 0.00 0.00 33 1017.9
20260508171147 20 76 1.6 4.8 0.00 0.00 0.00 35 1018.1
20260508170644 20 126 1.6 1.6 0.00 0.00 0.00 40 1018.3
20260508170142 20 353 3.2 4.8 0.00 0.00 0.00 34 1018.5
20260508165639 20 143 1.6 6.4 0.00 0.00 0.00 33 1018.6
20260508165136 20 109 0.0 3.2 0.00 0.00 0.00 34 1018.3
20260508164632 20 113 0.0 1.6 0.00 0.00 0.00 37 1018.6
20260508164129 19 343 4.8 4.8 0.00 0.00 0.00 37 1018.7
20260508163627 20 186 4.8 6.4 0.00 0.00 0.00 36 1018.8
20260508163124 19 98 1.6 3.2 0.00 0.00 0.00 36 1018.9
20260508162620 18 356 1.6 4.8 0.00 0.00 0.00 37 1019.2
20260508162118 18 145 1.6 4.8 0.00 0.00 0.00 35 1019.2
20260508161614 18 160 1.6 9.7 0.00 0.00 0.00 45 1019.2
20260508161112 20 227 3.2 4.8 0.00 0.00 0.00 33 1019.3
20260508160610 19 137 0.0 3.2 0.00 0.00 0.00 38 1019.4
20260508160107 18 288 1.6 4.8 0.00 0.00 0.00 35 1019.5
20260508155604 18 129 0.0 1.6 0.00 0.00 0.00 36 1019.5
20260508155100 18 157 1.6 3.2 0.00 0.00 0.00 34 1019.4
20260508154557 18 127 0.0 3.2 0.00 0.00 0.00 36 1019.5
20260508154054 18 13 3.2 3.2 0.00 0.00 0.00 35 1019.6
20260508153551 18 98 1.6 4.8 0.00 0.00 0.00 37 1019.7
20260508153047 18 292 1.6 6.4 0.00 0.00 0.00 39 1019.7
20260508152545 18 105 0.0 1.6 0.00 0.00 0.00 41 1019.7
20260508152040 18 57 1.6 3.2 0.00 0.00 0.00 38 1019.8
20260508151537 18 104 0.0 1.6 0.00 0.00 0.00 43 1019.8
20260508151034 18 70 1.6 4.8 0.00 0.00 0.00 39 1019.8
20260508150531 17 129 1.6 3.2 0.00 0.00 0.00 47 1019.9
20260508150026 18 169 1.6 3.2 0.00 0.00 0.00 41 1019.7
20260508145524 18 115 1.6 1.6 0.00 0.00 0.00 43 1020.1
20260508145020 18 73 3.2 3.2 0.00 0.00 0.00 37 1019.9
20260508144518 18 72 0.0 1.6 0.00 0.00 0.00 43 1019.7
20260508144015 17 130 1.6 1.6 0.00 0.00 0.00 48 1019.9
20260508143513 17 79 1.6 1.6 0.00 0.00 0.00 50 1019.8
20260508143009 17 97 0.0 1.6 0.00 0.00 0.00 51 1019.9
20260508142506 17 86 0.0 1.6 0.00 0.00 0.00 54 1020.0
20260508142002 17 42 1.6 1.6 0.00 0.00 0.00 57 1020.0
20260508141458 16 73 1.6 1.6 0.00 0.00 0.00 60 1020.1
20260508140957 16 84 0.0 1.6 0.00 0.00 0.00 63 1020.2
20260508140454 16 140 0.0 1.6 0.00 0.00 0.00 62 1020.0
20260508135949 15 90 0.0 1.6 0.00 0.00 0.00 63 1020.1
20260508135446 15 69 1.6 3.2 0.00 0.00 0.00 63 1020.3
20260508134942 15 81 1.6 4.8 0.00 0.00 0.00 66 1020.1
20260508134439 15 100 0.0 0.0 0.00 0.00 0.00 67 1020.1
20260508133936 15 99 0.0 1.6 0.00 0.00 0.00 68 1020.1
20260508133433 15 74 1.6 1.6 0.00 0.00 0.00 69 1020.0
20260508132930 15 54 1.6 3.2 0.00 0.00 0.00 69 1020.1
20260508132428 14 63 1.6 1.6 0.00 0.00 0.00 72 1020.1
20260508131924 13 127 1.6 3.2 0.00 0.00 0.00 73 1020.1
20260508131420 13 90 0.0 0.0 0.00 0.00 0.00 77 1019.9
20260508130917 13 113 0.0 1.6 0.00 0.00 0.00 76 1019.9
20260508130414 12 109 0.0 0.0 0.00 0.00 0.00 80 1020.0
20260508125910 11 94 0.0 1.6 0.00 0.00 0.00 83 1019.9
20260508125406 11 71 1.6 1.6 0.00 0.00 0.00 87 1020.2
20260508124904 10 105 0.0 1.6 0.00 0.00 0.00 91 1020.0
20260508124401 10 103 0.0 1.6 0.00 0.00 0.00 95 1019.9
20260508123859 10 104 0.0 1.6 0.00 0.00 0.00 97 1019.7
20260508123357 9 60 3.2 3.2 0.00 0.00 0.00 97 1020.0
20260508122853 8 80 1.6 1.6 0.00 0.00 0.00 97 1019.9
20260508122350 8 98 0.0 0.0 0.00 0.00 0.00 97 1019.8
20260508121847 8 101 0.0 0.0 0.00 0.00 0.00 97 1019.9
20260508121345 7 97 0.0 1.6 0.00 0.00 0.00 97 1019.8
20260508120843 7 97 0.0 1.6 0.00 0.00 0.00 97 1019.8
20260508120341 7 100 0.0 0.0 0.00 0.00 0.00 97 1019.7
20260508115838 7 88 1.6 1.6 0.00 0.00 0.00 97 1019.7
20260508115335 7 106 0.0 0.0 0.00 0.00 0.00 97 1019.6
20260508114832 7 105 0.0 0.0 0.00 0.00 0.00 97 1019.6
20260508114329 6 105 0.0 0.0 0.00 0.00 0.00 97 1019.3
20260508113825 6 111 0.0 0.0 0.00 0.00 0.00 97 1019.4
20260508113324 6 111 0.0 0.0 0.00 0.00 0.00 97 1019.5
20260508112820 6 131 0.0 0.0 0.00 0.00 0.00 97 1019.3
20260508112317 6 131 0.0 0.0 0.00 0.00 0.00 97 1019.2
20260508111813 6 131 0.0 0.0 0.00 0.00 0.00 97 1019.1
20260508111311 6 131 0.0 0.0 0.00 0.00 0.00 97 1018.9
20260508110808 5 131 0.0 0.0 0.00 0.00 0.00 97 1019.1
20260508110305 5 131 0.0 0.0 0.00 0.00 0.00 97 1018.9
20260508105805 5 131 0.0 0.0 0.00 0.00 0.00 97 1018.8
20260508105305 5 131 0.0 0.0 0.00 0.00 0.00 97 1018.7
20260508104759 5 131 0.0 0.0 0.00 0.00 0.00 97 1018.6
20260508104256 5 131 0.0 0.0 0.00 0.00 0.00 97 1018.7
20260508103753 5 131 0.0 0.0 0.00 0.00 0.00 97 1018.5
20260508103250 5 131 0.0 0.0 0.00 0.00 0.00 97 1018.5
20260508102747 5 131 0.0 0.0 0.00 0.00 0.00 97 1018.5
20260508102245 5 132 0.0 0.0 0.00 0.00 0.00 97 1018.3
20260508101742 5 131 0.0 0.0 0.00 0.00 0.00 97 1018.1
20260508101240 5 132 0.0 0.0 0.00 0.00 0.00 97 1018.1
20260508100737 5 132 0.0 0.0 0.00 0.00 0.00 97 1018.3
20260508100235 5 132 0.0 0.0 0.00 0.00 0.00 97 1018.0
20260508095731 5 131 0.0 0.0 0.00 0.00 0.00 97 1018.1
20260508095229 5 132 0.0 0.0 0.00 0.00 0.00 97 1018.1
20260508094725 5 131 0.0 0.0 0.00 0.00 0.00 97 1018.1
20260508094222 5 132 0.0 0.0 0.00 0.00 0.00 97 1018.1
20260508093720 5 132 0.0 0.0 0.00 0.00 0.00 97 1018.1
20260508093217 5 132 0.0 0.0 0.00 0.00 0.00 97 1018.0
20260508092714 6 131 0.0 0.0 0.00 0.00 0.00 97 1018.0
20260508092212 6 132 0.0 0.0 0.00 0.00 0.00 97 1017.8
20260508091709 6 132 0.0 0.0 0.00 0.00 0.00 97 1017.9
20260508091206 6 132 0.0 0.0 0.00 0.00 0.00 96 1017.8
20260508090704 6 132 0.0 0.0 0.00 0.00 0.00 97 1017.9
20260508090201 6 132 0.0 0.0 0.00 0.00 0.00 96 1018.0
20260508085657 6 132 0.0 0.0 0.00 0.00 0.00 96 1018.0
20260508085155 6 132 0.0 0.0 0.00 0.00 0.00 96 1017.9
20260508084651 6 132 0.0 0.0 0.00 0.00 0.00 96 1017.8
20260508084148 6 132 0.0 0.0 0.00 0.00 0.00 96 1017.9
20260508083646 6 132 0.0 0.0 0.00 0.00 0.00 96 1017.8
20260508083143 6 132 0.0 0.0 0.00 0.00 0.00 96 1017.8
20260508082638 6 132 0.0 0.0 0.00 0.00 0.00 96 1017.8
20260508082136 6 132 0.0 0.0 0.00 0.00 0.00 96 1017.8
20260508081633 6 132 0.0 0.0 0.00 0.00 0.00 96 1017.8
20260508081129 6 132 0.0 0.0 0.00 0.00 0.00 96 1017.8
20260508080627 6 132 0.0 0.0 0.00 0.00 0.00 96 1017.8
20260508080125 6 132 0.0 0.0 0.00 0.00 0.00 96 1017.8
20260508075621 6 132 0.0 0.0 0.00 0.00 0.00 96 1017.9
20260508075118 6 132 0.0 0.0 0.00 0.00 0.00 96 1017.7
20260508074616 6 132 0.0 0.0 0.00 0.00 0.00 96 1017.9
20260508074113 6 132 0.0 0.0 0.00 0.00 0.00 95 1018.1
20260508073610 6 132 0.0 0.0 0.00 0.00 0.00 95 1018.0
20260508073108 7 132 0.0 0.0 0.00 0.00 0.00 95 1018.0
20260508072602 7 132 0.0 0.0 0.00 0.00 0.00 95 1018.1
20260508072100 7 132 0.0 0.0 0.00 0.00 0.00 95 1017.9
20260508071558 7 132 0.0 0.0 0.00 0.00 0.00 95 1018.0
20260508071056 7 132 0.0 0.0 0.00 0.00 0.00 95 1017.9
20260508070553 7 132 0.0 0.0 0.00 0.00 0.00 95 1017.9
20260508070052 7 132 0.0 0.0 0.00 0.00 0.00 95 1017.9
20260508065548 7 132 0.0 0.0 0.00 0.00 0.00 95 1018.0
20260508065047 7 132 0.0 0.0 0.00 0.00 0.00 95 1018.0
20260508064544 7 132 0.0 0.0 0.00 0.00 0.00 95 1018.0
20260508064042 7 132 0.0 0.0 0.00 0.00 0.00 95 1017.9
20260508063539 7 132 0.0 0.0 0.00 0.00 0.00 95 1017.9
20260508063037 7 132 0.0 0.0 0.00 0.00 0.00 95 1018.0
20260508062534 7 132 0.0 0.0 0.00 0.00 0.00 95 1017.7
20260508062030 7 132 0.0 0.0 0.00 0.00 0.00 94 1017.9
20260508061529 7 132 0.0 0.0 0.00 0.00 0.00 94 1018.3
20260508061025 8 132 0.0 0.0 0.00 0.00 0.00 94 1018.1
20260508060522 8 132 0.0 0.0 0.00 0.00 0.00 94 1018.1
20260508060020 8 132 0.0 0.0 0.00 0.00 0.00 94 1018.1
20260508055515 8 132 0.0 0.0 0.00 0.00 0.00 94 1018.0
20260508055012 8 132 0.0 0.0 0.00 0.00 0.00 94 1018.0
20260508054508 8 132 0.0 0.0 0.00 0.00 0.00 94 1018.1
20260508054006 8 132 0.0 0.0 0.00 0.00 0.00 93 1018.0
20260508053502 8 132 0.0 0.0 0.00 0.00 0.00 93 1017.8
20260508053000 8 132 0.0 0.0 0.00 0.00 0.00 93 1018.1
20260508052458 8 132 0.0 0.0 0.00 0.00 0.00 93 1018.3
20260508051954 8 132 0.0 0.0 0.00 0.00 0.00 93 1018.1
20260508051449 8 132 0.0 0.0 0.00 0.00 0.00 92 1018.5
20260508050946 8 132 0.0 0.0 0.00 0.00 0.00 91 1018.3
20260508050442 8 132 0.0 0.0 0.00 0.00 0.00 91 1018.1
20260508045939 8 132 0.0 0.0 0.00 0.00 0.00 91 1018.3
20260508045436 8 132 0.0 0.0 0.00 0.00 0.00 90 1018.3
20260508044934 8 132 0.0 0.0 0.00 0.00 0.00 90 1017.9
20260508044431 8 132 0.0 0.0 0.00 0.00 0.00 90 1018.0
20260508043926 9 132 0.0 0.0 0.00 0.00 0.00 89 1018.1
20260508043424 9 132 0.0 0.0 0.00 0.00 0.00 88 1017.8
20260508042920 9 132 0.0 0.0 0.00 0.00 0.00 87 1017.8
20260508042418 10 132 0.0 0.0 0.00 0.00 0.00 85 1017.7
20260508041914 10 132 0.0 0.0 0.00 0.00 0.00 85 1017.9
20260508041411 10 132 0.0 0.0 0.00 0.00 0.00 84 1017.6
20260508040907 10 132 0.0 0.0 0.00 0.00 0.00 85 1017.5
20260508040405 10 132 0.0 0.0 0.00 0.00 0.00 85 1017.7
20260508035903 10 132 0.0 0.0 0.00 0.36 0.36 86 1017.6
20260508035359 10 132 0.0 0.0 0.00 0.36 0.36 85 1017.3
20260508034856 10 132 0.0 0.0 0.00 0.36 0.36 84 1017.4
20260508034354 11 132 0.0 0.0 0.00 0.36 0.36 82 1017.5
20260508033850 11 132 0.0 0.0 0.00 0.36 0.36 83 1017.5
20260508033348 11 132 0.0 0.0 0.00 0.36 0.36 81 1017.5
20260508032845 11 132 0.0 1.6 0.00 0.36 0.36 80 1017.4
20260508032343 11 132 0.0 1.6 0.00 0.36 0.36 79 1017.6
20260508031839 11 130 0.0 0.0 0.00 0.36 0.36 82 1017.5
20260508031336 11 130 0.0 0.0 0.00 0.36 0.36 83 1017.4
20260508030832 11 131 0.0 1.6 0.00 0.36 0.36 84 1017.4
20260508030330 11 127 0.0 0.0 0.00 0.36 0.36 82 1017.2
20260508025826 11 127 0.0 0.0 0.00 0.36 0.36 83 1017.0
20260508025323 11 112 0.0 1.6 0.00 0.36 0.36 82 1017.4
20260508024820 11 112 0.0 0.0 0.00 0.36 0.36 84 1017.4
20260508024317 12 112 0.0 1.6 0.00 0.36 0.36 84 1017.3
20260508023814 12 109 0.0 1.6 0.00 0.36 0.36 83 1017.3
20260508023310 12 108 0.0 0.0 0.00 0.36 0.36 85 1017.5
20260508022807 12 107 0.0 1.6 0.00 0.36 0.36 84 1017.3
20260508022306 12 90 0.0 1.6 0.00 0.36 0.36 84 1017.3
20260508021800 12 140 0.0 0.0 0.00 0.36 0.36 83 1017.3
20260508021256 12 141 0.0 0.0 0.00 0.36 0.36 82 1017.4
20260508020752 12 142 0.0 0.0 0.00 0.36 0.36 86 1017.2
20260508020250 13 130 0.0 0.0 0.00 0.36 0.36 89 1016.9
20260508015747 13 92 0.0 0.0 0.00 0.36 0.36 91 1016.9
20260508015244 13 85 0.0 1.6 0.00 0.36 0.36 91 1016.9
20260508014741 13 84 0.0 1.6 0.00 0.36 0.36 90 1016.4
20260508014238 13 147 0.0 0.0 0.00 0.36 0.36 90 1016.5
20260508013733 13 147 0.0 1.6 0.00 0.36 0.36 90 1016.5
20260508013230 13 142 0.0 0.0 0.00 0.36 0.36 90 1016.6
20260508012728 13 142 0.0 0.0 0.00 0.36 0.36 90 1016.3
20260508012224 13 142 0.0 1.6 0.00 0.36 0.36 90 1016.5
20260508011722 13 139 0.0 0.0 0.00 0.36 0.36 89 1016.4
20260508011220 13 139 0.0 0.0 0.00 0.36 0.36 89 1016.1
20260508010716 13 138 0.0 0.0 0.00 0.36 0.36 88 1016.0
20260508010215 13 139 0.0 0.0 0.00 0.36 0.36 88 1015.8
20260508005711 13 139 0.0 0.0 0.00 0.36 0.36 89 1015.8
20260508005208 13 139 0.0 0.0 0.00 0.36 0.36 88 1016.1
20260508004704 13 139 0.0 0.0 0.00 0.36 0.36 88 1015.8
20260508004200 13 139 0.0 0.0 0.00 0.36 0.36 87 1015.7
20260508003657 13 139 0.0 0.0 0.00 0.36 0.36 86 1015.7
20260508003154 13 139 0.0 0.0 0.00 0.36 0.36 85 1015.5
20260508002650 14 140 0.0 1.6 0.00 0.36 0.36 83 1015.5
20260508002149 14 139 0.0 0.0 0.00 0.36 0.36 82 1015.3
20260508001643 14 139 0.0 0.0 0.00 0.36 0.36 82 1015.3
20260508001140 15 139 0.0 0.0 0.00 0.36 0.36 81 1015.5
20260508000636 15 139 0.0 0.0 0.00 0.36 0.36 81 1015.1
20260508000133 15 139 0.0 0.0 0.00 0.36 0.36 81 1015.0
20260507235630 15 139 0.0 0.0 0.00 0.36 0.36 80 1015.1
20260507235127 15 139 0.0 0.0 0.00 0.36 0.36 78 1015.1
20260507234624 15 139 0.0 0.0 0.00 0.36 0.36 78 1015.1
20260507234120 16 140 0.0 1.6 0.00 0.36 0.36 77 1015.1
20260507233617 16 133 0.0 1.6 0.00 0.36 0.36 75 1015.2
20260507233116 16 128 0.0 0.0 0.00 0.36 0.36 75 1015.0
20260507232612 16 156 0.0 0.0 0.00 0.36 0.36 75 1015.1
20260507232109 16 156 0.0 0.0 0.00 0.36 0.36 73 1015.3
20260507231605 16 157 0.0 0.0 0.00 0.36 0.36 72 1015.2
20260507231103 17 157 0.0 1.6 0.00 0.36 0.36 71 1015.1
20260507230559 17 149 1.6 1.6 0.00 0.36 0.36 68 1015.3
20260507230056 17 141 0.0 1.6 0.00 0.36 0.36 66 1015.4
20260507225551 17 137 0.0 1.6 0.00 0.36 0.36 61 1015.4
20260507225048 17 166 1.6 1.6 0.00 0.36 0.36 64 1015.3
20260507224543 17 92 0.0 0.0 0.00 0.36 0.36 65 1015.2
20260507224040 17 91 0.0 0.0 0.00 0.36 0.36 63 1015.4
20260507223536 17 91 0.0 0.0 0.00 0.36 0.36 62 1015.4
20260507223033 17 91 0.0 0.0 0.00 0.36 0.36 62 1015.4
20260507222530 17 91 0.0 0.0 0.00 0.36 0.36 62 1015.4
20260507222027 17 91 0.0 1.6 0.00 0.36 0.36 62 1015.5
20260507221523 17 92 0.0 1.6 0.00 0.36 0.36 59 1015.4
20260507221020 17 95 0.0 1.6 0.00 0.36 0.36 61 1015.4
20260507220517 18 134 0.0 0.0 0.00 0.36 0.36 61 1015.4
20260507220015 18 106 0.0 0.0 0.00 0.36 0.36 64 1015.4
20260507215510 18 113 0.0 1.6 0.00 0.36 0.36 59 1015.2
20260507215009 19 146 1.6 3.2 0.00 0.36 0.36 58 1015.2
20260507214505 18 188 0.0 1.6 0.00 0.36 0.36 58 1015.2